Location: Cahas Mountain Overlook
(37.0833°N, 80.1000°W)
Time: 09:35:45
(UTC-05:00)

S-56A Canister/Altair - Pass Details

Date: 30 November 2023
Orbit: 640 x 2488 km, 38.9° (Epoch: 25 February)

Event Time Altitude Azimuth Distance (km) Brightness Sun altitude
Rises 11:01:11 0° 195° (SSW) 3,184 11.5 29.1°
Reaches altitude 10° 11:05:43 10° 157° (SSE) 2,068 11.4 29.4°
Maximum altitude 11:06:48 11° 143° (SE) 1,994 11.0 29.4°
Drops below altitude 10° 11:07:53 10° 129° (SE) 2,026 10.7 29.5°
Sets 11:12:05 0° 90° (E) 2,954 10.7 29.7°
